Flag for Germany Weather past 2 weeks in Grevenbroich, North Rhine-Westphalia, Germany

Now
73 °F

Clear.


Feels Like: 75 °F
Forecast: 67 / 90 °F
Wind: No wind

Location: Monchengladbach Airport

Current Time: Aug 29, 2015 at 8:57:14 PM

Latest Report: Aug 29, 2015 at 7:50 PM


Visibility: 10 mi

Pressure: 30.09 "Hg

Humidity: 74%

Dew point: 64 °F

Location of GrevenbroichLocation

Historic Weather in Grevenbroich — Graph

°F

Grevenbroich temperature yesterday

Maximum temperature yesterday: 70 °F (at 2:20 PM)
Minimum temperature yesterday: 55 °F (at 7:50 AM)
Average temperature yesterday: 66 °F

Past Weeks' High & Low Weather Summary

 TemperatureHumidityPressure
High81 °F (Aug 26, 3:20 PM)100% (Aug 15, 6:50 PM)30.24 "Hg (Aug 15, 6:50 PM)
Low54 °F (Aug 19, 7:50 AM)34% (Aug 22, 2:20 PM)29.50 "Hg (Aug 24, 4:20 PM)
Average67 °F72%29.96 "Hg
* Reported Aug 14 7:20 PM — Aug 29 7:50 PM, Grevenbroich, Weather by CustomWeather, © 2015

Note: Actual official high and low records may vary slightly from our data, if they occured in-between our weather recording intervals... More about our weather records

Advertising

Grevenbroich weather history for previous 24 hours

 ConditionsComfort  
Time TempWeatherWind HumidityBarometerVisibility
7:50 PM
Sat, Aug 29
73 °FClear.No wind74%30.09 "Hg10 mi
7:20 PM75 °FClear.No wind74%30.09 "Hg10 mi
6:50 PM73 °FClear.1 mph74%30.09 "Hg10 mi
6:20 PM73 °FClear.5 mph69%30.09 "Hg10 mi
5:50 PM75 °FPassing clouds.5 mph61%30.12 "HgN/A
5:20 PM77 °FPassing clouds.6 mph61%30.12 "HgN/A
4:50 PM75 °FPassing clouds.5 mph61%30.12 "HgN/A
4:20 PM75 °FClear.3 mph61%30.12 "Hg10 mi
3:50 PM77 °FPassing clouds.3 mph57%30.12 "HgN/A
3:20 PM75 °FClear.2 mph57%30.15 "Hg10 mi
2:50 PM75 °FPassing clouds.3 mph61%30.15 "HgN/A
2:20 PM73 °FClear.5 mph61%30.15 "Hg10 mi
1:50 PM73 °FPassing clouds.5 mph61%30.18 "HgN/A
1:20 PM72 °FPassing clouds.5 mph65%30.18 "HgN/A
12:50 PM72 °FClear.3 mph65%30.18 "Hg10 mi
11:50 AM70 °FSunny.5 mph69%30.18 "Hg10 mi
11:20 AM66 °FPassing clouds.6 mph78%30.18 "HgN/A
10:50 AM66 °FPassing clouds.6 mph78%30.18 "HgN/A
9:50 AM61 °FPassing clouds.5 mph94%30.21 "HgN/A
9:20 AM59 °FSunny.8 mph94%30.21 "Hg10 mi
8:50 AM59 °FSunny.5 mph100%30.21 "Hg10 mi
7:50 AM55 °FSunny.No wind100%30.21 "Hg10 mi
8:20 PM
Fri, Aug 28
66 °FClear.2 mph64%30.12 "Hg10 mi
Weather by CustomWeather, © 2015

See weather overviewHow to use our weather pages